Preview of NWS' New Version of Forecast
This preview is not operational and should not be used for support decisions.

Regional Weather Roundup (RWR)

Issued by National Weather Service (NWS)

                            
000
ASCA42 TJSJ 221210
RWRPR 
PUERTO RICO/U.S. VIRGIN ISLANDS HOURLY WEATHER ROUNDUP
NATIONAL WEATHER SERVICE SAN JUAN PR
800 AM AST FRI FEB 22 2019

PRZ001>002-007>008-010-221300-
PUERTO RICO
  
CITY           SKY/WX    TMP DP  RH WIND       PRES   REMARKS
SAN JUAN LMM   MOSUNNY   79  72  78 E16       30.13R                  
AGUADILLA      PTSUNNY   73 N/A N/A E10       30.14R                  
CEIBA          PTSUNNY   77  70  78 E12       30.15R                  
$$

VIZ001>002-221300-
U.S. VIRGIN ISLANDS
  
CITY           SKY/WX    TMP DP  RH WIND       PRES   REMARKS
CHARLOTTE AMA  MOSUNNY   79  70  73 E9        30.12R                  
CHRISTIANSTED  MOSUNNY   81  68  65 E14       30.12R                  
$$

HOURLY WEATHER ROUNDUP FOR THE NEWS MEDIA
  
CITY           SKY/WX    TMP DP  RH WIND       PRES   REMARKS
ORLANDO        FAIR      68  67  96 SE5       30.16R                  
NEW YORK       CLOUDY    39  23  52 NW14      30.29R WCI  31          
NEWARK         CLOUDY    39  23  52 NW7       30.29R WCI  34          
CHICAGO        FAIR      19  14  81 N5        30.41R WCI  12          
HARTFORD       CLOUDY    36  27  69 W6        30.21R WCI  31          
BOSTON         MOCLDY    39  23  52 NW7       30.22R WCI  34          
DALLAS         CLOUDY    47  46  97 E15G23    29.94F FOG              
PHILADELPHIA   CLOUDY    41  24  51 N10       30.32R                  
LOS ANGELES    PTCLDY    47  25  42 N8        29.84R                  
WASHINGTON DC  CLOUDY    43  26  51 NW6       30.32R